Temp
-12 -11 -11 -12 -12 -13 -12 -12 -12 -12 -12 -12 -13 -13 -13 -13 -12 -12 -12 -12 -11 -11 -11 -11 -10 -9 -10 -10 -11 -11 -11 -10 -10 -10 -10 -10 -9 -10 -11 -12 -12 -11 -11
-12 -12 -11 -11 -11 -12 -12 -13 -13 -12 -12 -12 -13 -13 -13 -13 -13 -12 -12 -12 -12 -12 -11 -10 -9 -10 -10 -10 -11 -11 -11 -10 -10 -10 -10 -10 -10 -11 -10 -11 -11 -11 -12
-13 -13 -13 -12 -12 -12 -12 -12 -13 -12 -12 -12 -13 -13 -13 -12 -13 -12 -12 -12 -12 -11 -11 -10 -9 -9 -9 -10 -11 -11 -11 -11 -11 -11 -10 -11 -10 -11 -11 -11 -11 -12 -12
-14 -13 -13 -14 -13 -12 -12 -12 -12 -12 -12 -13 -13 -13 -13 -12 -13 -12 -13 -13 -12 -12 -12 -10 -9 -10 -10 -10 -11 -11 -11 -11 -11 -10 -10 -11 -10 -10 -11 -11 -12 -12 -13
-15 -14 -14 -14 -14 -14 -14 -13 -13 -13 -13 -13 -13 -13 -13 -13 -13 -13 -13 -13 -13 -12 -12 -11 -10 -10 -10 -11 -11 -11 -11 -11 -10 -11 -11 -10 -11 -11 -11 -11 -12 -12 -13
-15 -15 -15 -15 -14 -15 -15 -14 -14 -14 -14 -13 -14 -14 -14 -14 -14 -14 -13 -13 -13 -13 -12 -12 -13 -12 -11 -11 -12 -11 -11 -11 -11 -11 -10 -10 -11 -11 -11 -12 -12 -12 -13
-15 -15 -15 -15 -15 -15 -15 -15 -15 -15 -15 -15 -14 -14 -14 -14 -14 -14 -13 -13 -13 -13 -13 -12 -13 -14 -14 -12 -12 -12 -11 -11 -11 -11 -11 -10 -11 -11 -11 -12 -12 -12 -13
-17 -17 -16 -16 -16 -15 -14 -15 -16 -16 -15 -15 -15 -15 -14 -14 -14 -14 -14 -14 -14 -13 -12 -12 -12 -12 -13 -13 -12 -12 -11 -11 -11 -11 -11 -10 -10 -11 -11 -11 -12 -12 -13
-18 -18 -18 -18 -17 -16 -16 -15 -15 -15 -16 -15 -15 -14 -13 -14 -14 -14 -15 -14 -14 -13 -13 -12 -12 -12 -13 -12 -12 -12 -12 -11 -12 -11 -11 -10 -11 -10 -11 -10 -11 -11 -12
-18 -19 -18 -19 -18 -18 -17 -17 -16 -14 -15 -15 -16 -15 -14 -14 -15 -15 -15 -14 -14 -13 -13 -13 -12 -12 -12 -12 -12 -12 -12 -12 -12 -12 -11 -11 -11 -11 -11 -10 -12 -12 -13
-18 -18 -19 -19 -19 -19 -19 -18 -18 -17 -17 -16 -15 -16 -15 -15 -15 -15 -15 -14 -14 -14 -13 -13 -13 -12 -12 -12 -12 -12 -12 -12 -12 -12 -12 -12 -11 -11 -11 -11 -12 -12 -13
-19 -19 -19 -19 -20 -20 -19 -19 -19 -19 -20 -18 -18 -18 -16 -15 -15 -15 -15 -15 -15 -15 -14 -13 -13 -12 -12 -12 -12 -12 -12 -12 -11 -11 -11 -11 -11 -11 -11 -11 -11 -13 -13
-20 -20 -20 -20 -20 -20 -20 -19 -20 -20 -20 -20 -20 -19 -19 -17 -15 -15 -15 -15 -15 -15 -14 -13 -13 -13 -13 -12 -12 -12 -12 -12 -12 -11 -12 -12 -11 -12 -11 -11 -11 -12 -13
-20 -20 -20 -20 -21 -21 -20 -20 -20 -20 -20 -20 -20 -20 -19 -18 -17 -16 -16 -15 -15 -15 -14 -13 -13 -13 -13 -12 -12 -13 -12 -12 -12 -12 -12 -11 -11 -12 -12 -12 -11 -13 -13
-21 -22 -22 -22 -21 -21 -21 -20 -20 -20 -20 -20 -20 -20 -20 -19 -18 -17 -17 -16 -15 -14 -14 -14 -14 -13 -13 -13 -13 -13 -13 -12 -12 -12 -12 -12 -12 -12 -12 -13 -13 -13 -13
-22 -23 -23 -23 -23 -22 -21 -21 -20 -21 -21 -21 -20 -20 -20 -20 -20 -18 -17 -16 -16 -15 -14 -14 -14 -13 -13 -14 -14 -14 -13 -12 -13 -13 -13 -13 -12 -13 -13 -13 -13 -14 -14
-23 -23 -23 -23 -23 -23 -23 -22 -22 -21 -21 -21 -20 -20 -20 -20 -20 -20 -18 -17 -16 -15 -15 -14 -14 -14 -14 -14 -14 -14 -14 -13 -13 -13 -13 -13 -13 -13 -13 -13 -14 -13 -14
-23 -23 -23 -23 -23 -23 -23 -23 -21 -21 -21 -21 -21 -21 -20 -20 -20 -21 -20 -18 -17 -16 -15 -14 -14 -14 -14 -14 -14 -14 -13 -14 -14 -13 -14 -14 -14 -13 -14 -14 -14 -13 -13
-24 -24 -23 -23 -24 -24 -24 -23 -22 -22 -22 -22 -21 -21 -21 -20 -20 -20 -21 -19 -19 -17 -16 -15 -14 -14 -13 -14 -15 -14 -14 -14 -15 -14 -15 -15 -14 -14 -14 -14 -14 -14 -13
-24 -24 -24 -23 -24 -24 -24 -23 -23 -23 -23 -22 -22 -21 -21 -21 -21 -20 -20 -20 -20 -19 -17 -15 -14 -15 -15 -14 -15 -15 -14 -15 -15 -14 -14 -14 -14 -13 -14 -13 -13 -13 -13
-24 -24 -24 -24 -24 -24 -24 -24 -23 -23 -23 -22 -22 -22 -22 -21 -21 -21 -20 -20 -19 -19 -18 -16 -15 -15 -15 -16 -15 -15 -14 -14 -15 -15 -15 -14 -14 -14 -14 -14 -14 -14 -13
-24 -23 -23 -24 -24 -24 -24 -24 -23 -23 -23 -22 -22 -22 -22 -22 -21 -21 -21 -20 -20 -19 -19 -17 -17 -16 -16 -16 -16 -15 -15 -15 -15 -15 -15 -15 -15 -15 -15 -14 -14 -14 -13
-24 -24 -24 -24 -24 -24 -23 -24 -24 -23 -22 -23 -22 -22 -22 -22 -22 -21 -21 -20 -20 -20 -18 -19 -18 -17 -16 -16 -16 -16 -16 -16 -16 -16 -16 -16 -15 -15 -15 -14 -14 -14 -14
-24 -24 -24 -24 -24 -24 -23 -23 -23 -24 -23 -23 -23 -23 -23 -22 -22 -22 -22 -21 -20 -20 -20 -19 -19 -17 -17 -17 -16 -16 -17 -17 -17 -17 -16 -16 -16 -15 -15 -15 -14 -14 -14
-24 -24 -24 -24 -24 -24 -23 -23 -23 -23 -23 -23 -23 -23 -23 -22 -22 -21 -21 -21 -21 -20 -20 -20 -19 -19 -17 -17 -18 -17 -16 -17 -17 -17 -17 -16 -16 -16 -16 -15 -15 -15 -14
-24 -24 -24 -24 -24 -24 -23 -23 -24 -23 -23 -23 -23 -23 -23 -23 -22 -22 -21 -21 -21 -21 -21 -20 -19 -19 -19 -19 -18 -18 -19 -19 -18 -17 -17 -17 -16 -16 -16 -15 -15 -15 -15
Height
5776 5778 5779 5781 5782 5785 5787 5790 5792 5796 5797 5799 5800 5802 5803 5804 5805 5805 5806 5808 5809 5809 5810 5810 5810 5809 5810 5811 5811 5814 5817 5817 5816 5815 5815 5815 5813 5812 5811 5810 5809 5809 5808
5761 5763 5766 5768 5769 5771 5773 5775 5778 5781 5785 5785 5789 5790 5792 5792 5793 5793 5796 5796 5797 5797 5800 5800 5798 5798 5801 5802 5804 5806 5807 5808 5808 5809 5808 5808 5806 5805 5806 5804 5803 5803 5803
5746 5747 5750 5753 5755 5757 5759 5762 5765 5767 5768 5771 5773 5778 5779 5781 5782 5784 5783 5785 5786 5786 5787 5787 5785 5784 5788 5790 5794 5794 5797 5798 5800 5801 5800 5800 5799 5798 5799 5799 5797 5796 5796
5729 5732 5734 5737 5740 5743 5744 5747 5749 5752 5755 5757 5759 5763 5766 5769 5769 5773 5774 5775 5776 5777 5776 5776 5774 5771 5777 5779 5781 5783 5786 5788 5790 5791 5791 5792 5791 5791 5792 5791 5789 5789 5789
5714 5716 5718 5721 5724 5725 5728 5731 5733 5736 5739 5743 5746 5748 5752 5755 5758 5762 5764 5765 5765 5766 5766 5765 5763 5759 5764 5766 5767 5774 5775 5777 5779 5780 5782 5782 5783 5783 5784 5784 5782 5782 5783
5698 5700 5701 5702 5707 5708 5711 5714 5718 5721 5725 5728 5731 5735 5738 5742 5746 5750 5753 5755 5757 5759 5760 5759 5756 5755 5752 5758 5760 5764 5766 5766 5768 5770 5771 5773 5773 5775 5775 5775 5774 5774 5775
5680 5682 5684 5684 5688 5694 5695 5697 5701 5705 5709 5713 5717 5721 5725 5729 5733 5737 5741 5744 5747 5750 5751 5752 5751 5750 5743 5748 5749 5752 5754 5755 5756 5758 5760 5761 5763 5766 5766 5766 5766 5766 5766
5665 5664 5666 5667 5670 5673 5677 5681 5684 5689 5695 5700 5703 5708 5712 5715 5719 5723 5727 5731 5736 5739 5742 5743 5741 5737 5737 5738 5738 5739 5741 5744 5745 5746 5749 5750 5752 5756 5755 5756 5756 5757 5757
5651 5651 5651 5651 5652 5655 5658 5660 5665 5669 5675 5681 5687 5691 5691 5699 5704 5708 5714 5719 5724 5729 5731 5732 5731 5731 5731 5731 5730 5731 5731 5734 5734 5734 5738 5739 5741 5743 5743 5744 5744 5746 5747
5637 5637 5636 5637 5639 5640 5641 5644 5646 5648 5653 5661 5667 5673 5679 5683 5684 5693 5700 5707 5713 5718 5719 5721 5723 5722 5721 5721 5722 5723 5723 5725 5724 5725 5727 5728 5730 5730 5732 5732 5733 5736 5738
5624 5623 5623 5622 5624 5626 5629 5629 5631 5631 5634 5639 5645 5653 5661 5668 5674 5680 5686 5695 5700 5704 5708 5711 5713 5712 5712 5711 5712 5713 5714 5715 5715 5717 5716 5716 5718 5720 5720 5721 5723 5726 5729
5610 5610 5609 5609 5609 5610 5614 5616 5616 5617 5617 5622 5625 5631 5639 5648 5657 5665 5671 5680 5686 5692 5697 5699 5702 5701 5701 5701 5702 5702 5702 5702 5704 5705 5707 5706 5708 5709 5710 5711 5713 5715 5719
5596 5596 5595 5594 5595 5596 5599 5601 5603 5604 5606 5608 5610 5615 5622 5629 5638 5647 5656 5663 5670 5679 5683 5687 5689 5691 5692 5692 5693 5692 5691 5690 5689 5690 5692 5695 5698 5699 5700 5701 5703 5705 5710
5583 5582 5581 5580 5580 5581 5583 5586 5588 5590 5593 5597 5599 5602 5607 5613 5621 5629 5637 5648 5657 5663 5670 5674 5677 5679 5682 5682 5683 5682 5681 5681 5678 5678 5682 5685 5685 5689 5689 5690 5691 5694 5701
5570 5567 5565 5565 5566 5568 5570 5573 5574 5576 5580 5584 5588 5591 5593 5596 5603 5611 5621 5630 5640 5647 5655 5661 5665 5668 5671 5672 5674 5671 5673 5672 5668 5665 5668 5672 5672 5675 5678 5681 5682 5688 5693
5559 5557 5555 5553 5553 5554 5556 5561 5562 5565 5568 5572 5577 5580 5582 5584 5587 5594 5604 5613 5623 5632 5640 5647 5653 5656 5657 5659 5663 5664 5665 5664 5662 5661 5659 5661 5665 5667 5670 5674 5677 5683 5688
5552 5549 5547 5546 5544 5543 5544 5549 5552 5554 5557 5561 5565 5570 5573 5577 5578 5581 5588 5597 5608 5618 5626 5634 5638 5639 5642 5648 5653 5654 5655 5655 5654 5656 5655 5654 5659 5663 5666 5669 5672 5673 5676
5542 5540 5538 5537 5535 5535 5534 5537 5539 5532 5540 5547 5552 5558 5563 5567 5569 5572 5576 5583 5593 5603 5612 5617 5622 5628 5624 5634 5640 5644 5646 5646 5647 5649 5652 5653 5652 5656 5658 5659 5667 5670 5672
5534 5531 5529 5526 5524 5525 5526 5525 5524 5525 5532 5536 5542 5549 5554 5558 5561 5565 5568 5573 5580 5588 5595 5600 5605 5614 5604 5616 5628 5634 5637 5640 5641 5644 5647 5648 5652 5653 5654 5657 5660 5663 5664
5525 5523 5520 5518 5516 5516 5517 5519 5519 5519 5523 5529 5535 5540 5544 5550 5554 5558 5561 5565 5571 5577 5583 5590 5598 5607 5606 5608 5617 5624 5630 5632 5635 5638 5641 5643 5647 5649 5650 5653 5655 5655 5655
5516 5514 5512 5510 5509 5509 5512 5512 5513 5513 5515 5521 5526 5531 5535 5541 5546 5550 5554 5558 5562 5568 5573 5579 5586 5592 5599 5605 5609 5615 5622 5626 5628 5631 5637 5638 5641 5644 5646 5648 5649 5648 5648
5506 5503 5501 5502 5504 5505 5506 5506 5507 5508 5510 5516 5519 5524 5529 5535 5540 5544 5547 5551 5556 5559 5566 5572 5578 5585 5593 5597 5601 5606 5613 5616 5620 5625 5629 5632 5635 5637 5638 5638 5640 5641 5640
5494 5493 5493 5495 5499 5501 5503 5502 5503 5503 5505 5510 5514 5518 5524 5529 5534 5538 5542 5545 5550 5552 5559 5562 5568 5576 5583 5587 5589 5594 5601 5607 5612 5618 5622 5625 5628 5629 5630 5631 5632 5632 5633
5480 5482 5487 5492 5496 5499 5501 5502 5503 5506 5507 5508 5512 5515 5520 5525 5529 5533 5536 5539 5543 5546 5550 5555 5559 5566 5575 5577 5582 5587 5591 5597 5602 5608 5613 5617 5618 5620 5622 5623 5625 5625 5626
5485 5485 5489 5492 5496 5499 5502 5504 5505 5506 5506 5508 5510 5513 5516 5519 5523 5527 5530 5534 5537 5541 5545 5548 5554 5560 5566 5570 5578 5578 5582 5588 5594 5600 5604 5608 5610 5612 5613 5614 5616 5617 5617
5496 5494 5494 5496 5499 5501 5504 5506 5508 5508 5508 5509 5510 5512 5515 5517 5519 5522 5525 5527 5530 5534 5539 5544 5549 5552 5559 5564 5570 5572 5574 5581 5587 5591 5596 5599 5602 5603 5604 5604 5605 5606 5607
Wind_Speed
54 55 56 57 60 59 59 58 57 56 56 55 55 55 55 55 52 51 49 50 54 56 56 60 63 58 60 56 48 45 48 44 39 36 35 34 33 33 28 25 24 26 28
57 59 60 61 62 62 64 63 61 60 59 59 60 59 58 55 53 54 52 53 53 56 55 57 56 56 55 52 47 43 43 43 40 38 36 34 33 34 30 23 23 24 26
59 62 62 63 65 65 65 66 67 66 64 63 62 59 60 61 59 56 54 56 55 55 51 45 38 42 49 52 47 46 46 46 44 39 38 36 35 35 28 25 24 25 28
58 60 65 65 66 67 68 67 68 69 69 68 67 65 64 61 59 55 52 52 52 49 42 43 42 31 50 58 48 51 50 48 45 42 40 40 34 31 25 27 26 29 31
59 61 62 62 64 68 69 68 68 67 68 65 62 59 55 52 51 49 48 48 45 38 34 31 30 29 39 46 46 50 53 51 49 46 46 40 34 29 30 29 31 33 31
59 64 63 63 60 62 64 69 69 64 66 66 60 56 52 51 49 46 46 43 41 37 33 33 30 32 30 36 30 32 41 47 44 45 48 41 36 34 33 32 34 34 33
58 61 69 70 69 66 66 67 68 64 63 64 60 57 56 53 50 48 44 45 40 35 32 34 36 37 33 35 27 31 31 39 43 45 43 42 38 37 37 37 36 35 36
39 45 56 66 71 75 73 71 71 68 61 61 61 56 53 50 49 47 48 44 40 37 34 34 33 28 35 38 38 35 32 35 42 42 33 44 40 39 40 43 40 38 37
43 44 44 43 52 65 70 75 77 71 69 69 67 66 66 53 48 43 39 35 37 36 33 30 34 33 28 26 29 34 35 39 36 31 33 38 39 42 46 51 47 45 38
45 47 47 47 46 44 54 62 70 87 75 70 75 69 71 71 59 56 47 40 43 38 38 37 34 35 37 35 38 37 39 40 42 44 34 40 47 48 49 50 49 47 41
46 48 48 50 50 48 46 44 45 52 63 74 70 64 71 68 60 54 51 49 45 43 40 40 39 36 38 37 37 38 38 41 47 46 42 38 33 39 35 38 48 48 45
45 47 50 53 53 51 49 46 44 42 44 54 63 57 65 65 63 59 57 56 51 45 46 43 44 39 39 41 40 39 39 39 43 49 47 42 43 39 38 36 40 44 46
41 41 44 47 47 50 51 50 46 44 43 42 45 52 58 58 66 66 62 49 51 45 45 41 42 42 39 43 44 40 43 42 42 40 40 43 42 42 41 41 40 43 44
40 42 43 44 45 43 45 49 49 49 47 41 39 40 49 56 58 62 60 57 52 45 44 46 43 40 42 44 47 32 30 35 34 39 44 48 48 40 36 47 44 38 35
35 38 42 44 44 42 41 42 47 49 48 44 40 37 38 45 52 54 54 56 53 51 51 47 46 40 42 44 45 40 40 38 35 37 41 50 45 40 36 32 27 27 28
30 31 29 29 35 37 39 40 43 45 43 43 43 40 37 38 42 49 52 53 52 52 50 45 44 49 48 47 42 34 31 32 29 22 24 25 24 20 16 25 27 26 22
30 29 27 25 24 26 34 36 39 43 47 47 44 42 38 34 35 44 52 55 56 52 47 43 42 46 55 48 34 28 30 31 13 11 24 15 21 17 21 21 16 21 22
30 30 33 33 31 27 28 31 32 16 37 46 41 43 40 35 33 36 48 60 61 55 56 51 55 55 35 37 32 24 30 27 12 15 14 12 21 9 11 10 12 18 24
26 28 29 30 31 29 25 26 41 41 38 36 40 41 41 38 33 29 37 55 58 59 62 62 47 30 23 34 33 31 32 26 13 12 9 9 10 11 13 15 15 18 22
24 21 22 25 26 25 22 21 20 29 35 34 39 37 37 38 35 32 26 35 48 60 61 59 53 49 28 29 33 34 31 23 16 15 19 19 15 14 15 15 18 19 18
28 29 27 23 23 22 19 21 24 22 28 41 39 34 35 36 33 32 30 23 32 53 46 62 69 25 26 45 35 38 38 29 21 18 22 20 19 18 18 17 20 20 21
30 25 22 20 18 16 14 18 21 17 16 24 33 39 36 31 32 31 31 32 26 35 50 48 63 45 39 40 42 42 41 34 28 24 24 23 23 22 20 19 21 21 21
26 22 16 17 15 13 10 10 12 11 21 21 24 30 31 30 30 30 32 33 28 23 36 38 50 50 38 38 49 47 43 32 28 26 26 27 25 23 21 22 24 24 27
17 12 12 13 9 10 5 12 17 10 8 8 10 19 24 27 26 27 27 26 27 29 23 29 43 53 50 23 33 36 32 31 28 28 28 27 25 24 23 25 27 26 28
13 8 11 11 13 11 9 7 8 9 8 8 11 15 20 24 26 26 24 25 24 25 34 24 31 46 49 41 22 31 35 25 24 31 31 29 28 28 28 30 31 31 31
10 11 11 12 14 14 12 8 3 6 6 6 9 14 14 13 20 26 29 26 29 28 22 20 19 24 29 25 21 14 6 9 22 25 26 28 30 31 30 31 33 32 32
Wind_Direction
248 249 251 252 253 253 256 258 257 256 259 259 260 263 268 273 275 278 277 275 276 278 280 284 291 285 269 273 269 265 268 268 269 276 280 295 297 298 284 275 278 289 288
247 245 246 249 251 252 253 254 257 258 257 257 256 260 265 269 271 274 276 277 279 281 287 283 292 280 272 270 270 264 266 266 266 275 281 290 295 290 296 289 282 281 281
250 246 245 244 246 249 251 253 254 256 257 257 259 259 260 263 267 270 272 276 282 285 291 289 279 286 268 263 267 253 260 261 266 270 280 282 294 289 279 278 275 275 276
257 253 248 246 247 247 246 248 252 254 256 259 261 263 264 264 265 267 270 275 277 287 296 291 274 277 268 261 258 251 255 255 261 270 270 277 285 291 274 279 271 269 275
256 255 253 249 248 247 246 246 248 252 255 258 260 261 261 261 261 263 267 273 278 283 295 295 279 269 279 253 246 251 256 256 260 263 269 269 275 273 276 279 273 270 274
255 251 249 249 247 250 249 249 247 250 253 254 257 258 258 257 258 262 262 264 268 274 284 286 261 257 259 242 237 250 251 252 259 265 263 267 266 268 270 271 275 271 266
257 252 250 248 250 254 250 249 245 245 249 251 252 254 256 256 256 255 253 257 259 265 273 278 260 256 252 242 241 256 245 241 244 250 260 257 263 263 270 267 271 274 270
269 264 258 253 251 253 249 247 243 242 244 245 248 249 247 240 242 239 245 250 255 261 266 265 276 270 258 259 253 250 250 265 246 249 265 270 261 260 268 267 267 265 266
271 268 267 267 261 255 252 254 247 236 238 241 240 238 240 230 226 228 233 243 254 256 253 257 268 270 264 269 258 253 269 267 266 258 260 263 271 268 268 269 264 261 257
270 268 269 267 266 267 261 257 253 251 244 242 238 240 243 253 259 260 252 240 249 245 246 248 254 263 269 265 263 264 260 261 265 270 262 259 270 270 276 273 263 265 256
271 270 268 269 267 264 264 268 265 263 260 255 244 242 240 244 249 249 248 248 238 245 249 250 251 256 264 264 266 269 267 261 261 266 267 272 261 275 274 261 256 261 256
271 269 269 269 267 264 262 260 265 264 260 251 257 253 245 239 239 240 241 247 247 248 248 252 254 253 257 263 265 268 270 266 261 262 265 266 269 270 276 267 265 256 251
274 272 270 270 268 263 260 257 255 259 260 259 252 251 249 249 247 249 248 243 243 244 243 242 251 248 252 260 264 269 271 275 263 262 264 269 271 268 275 269 269 253 248
277 275 270 267 266 263 258 256 253 253 256 258 263 258 248 243 244 245 247 249 246 240 243 237 245 246 249 259 263 261 255 280 273 252 253 252 252 260 264 261 260 240 235
289 284 276 265 262 260 256 254 253 252 255 256 256 260 260 251 240 237 238 239 241 242 245 241 239 248 254 259 263 266 270 280 281 258 250 251 241 239 252 249 232 217 232
295 294 291 281 262 255 254 250 249 250 249 250 247 250 260 260 248 233 227 228 228 233 233 241 242 242 250 252 258 265 270 275 264 259 229 223 221 209 215 223 217 236 250
289 287 284 287 286 272 254 245 262 253 250 247 247 246 248 256 255 240 223 217 216 220 220 230 236 240 242 245 249 250 252 247 244 225 214 196 206 221 235 250 226 257 272
283 280 281 283 279 270 266 244 217 221 247 240 242 238 240 243 254 252 234 218 214 210 214 223 223 242 230 225 227 243 252 259 259 251 222 196 186 217 267 218 237 253 259
288 284 281 282 274 266 266 263 247 252 250 236 240 239 238 238 241 253 247 231 225 213 215 228 221 236 220 216 225 238 247 239 247 230 250 189 216 210 232 241 253 267 276
287 285 289 279 275 261 257 259 268 253 244 235 234 235 234 233 235 237 249 242 239 224 220 217 215 223 242 228 231 236 235 236 239 232 222 203 212 229 242 252 265 272 278
288 286 283 279 276 259 252 254 260 252 237 222 223 231 225 226 233 233 235 244 243 234 232 221 221 217 219 233 243 241 236 233 233 223 221 222 224 229 232 254 268 273 277
294 289 278 258 253 251 259 268 268 261 226 225 238 236 231 230 229 232 237 240 247 244 241 225 223 224 230 235 233 228 232 227 228 226 231 233 237 245 260 270 277 281 281
289 276 267 230 234 238 248 262 227 237 202 216 233 224 226 226 232 237 241 245 248 247 227 238 222 221 223 211 212 216 219 222 228 236 241 245 242 247 259 269 274 280 283
305 236 228 196 192 182 187 210 233 204 223 225 218 212 220 223 228 237 237 243 237 236 223 234 234 222 223 211 213 212 216 220 229 241 246 251 255 254 262 267 273 274 275
54 120 143 154 159 161 164 164 184 215 205 207 207 209 220 228 233 237 238 231 224 241 248 247 245 239 214 224 225 204 204 205 221 241 250 257 259 260 269 277 281 278 278
76 92 117 131 134 129 107 89 127 180 201 198 206 215 223 230 229 232 226 234 231 222 208 217 238 255 243 251 243 244 209 229 238 248 261 263 265 272 277 280 283 280 280